Showing default

MOHAMMED VI-B, 43717

Orbit data source: Space-Track

MOHAMMED VI-B, 43717 is a payload satellite owned by RMAF (MA) in SSO that was launched on Wed, 21 Nov 2018 UTC via a VEGA launch vehicle from the French Guiana (FRGUI). Payload-class satellites include a variety of spacecraft equipped with specific instruments for various scientific and technological missions. These include communications satellites like Starlink; space stations such as the ISS; scientific satellites like the Hubble; Earth observation satellites from companies like Planet Labs, Umbra, and HawkEye 360; GPS; miniature CubeSats for education and research; and military/defense satellites.

Loading next visibility...
Identifier
43717, 2018-095A
Orbit
SSO
Country
Flag of MAMA
Related business
Manufacturer
Airbus/Toulouse
Mission
Operational Defense Imaging
Bus & Motor
ASTROSAT-1000, Unknown motor
Mass
1,108 kg wet, ~900 kg dry
Launch date (UTC)
2018-11-21 (7 years ago)
Launch vehicle
VEGA
Launch site
French Guiana (FRGUI)
Object type
Payload
Rocket body
Debris
Shape & HBR
Hex Cyl + 3 Pan, 4.0 m
Radar Cross Section
12.145 m², Large (>1 m²)

Expand to show TLE details & history
Last TLE update: 8 hours ago

TLE from 8 hours ago
0 MOHAMMED VI-B
1 43717U 18095A   26129.97053525  .00000626  00000-0  95940-4 0  9996
2 43717  97.9559 202.8190 0001369  77.0154 283.1209 14.77067967402547
Epoch: 2026-05-09T23:17Z
TLE epoch observation values (Epoch: 2026-05-09T23:17:34.245Z)
Latitude
-0.00003°
Longitude
-14.35401°
Altitude
641.392 km
Speed
7.537 km/s
True Right ascension
13h 31m 16s
True Declination
0° 00' 00"
Sunlit
Object was in full shadow at epoch
Visualization orbit readout
Latitude
Unknown
Longitude
Unknown
Altitude
Unknown
Speed
Unknown
Apparent Right ascension
Unknown
Apparent Declination
Unknown
Sunlit
N/A
Visualization observer readout
Local Sidereal Time
15:53:18
Azimuth
Unknown
Elevation
Unknown
Doppler factor
Unknown
Orbital elements
Apogee altitude
636.602 km
Perigee altitude
634.682 km
Semi-major axis
7,013.779 km
Eccentricity
0.00014
Inclination
97.9559°
RAAN
202.819°
Arg. of periapsis
77.0154°
True anomaly
283.10562°
Mean anomaly
283.1209°
Eccentric anomaly
283.11326°
Mean motion
3.69501 °/min
Orbital period
97.43 mins
BSTAR
0.00009594
Loading maneuver chart data...
Computing Atmospheric mass density...
Loading historical data...
Loading historical data...
Loading historical data...
Loading historical data...
Loading historical data...
Loading historical data...
Loading historical data...
Other satellites on launch #95 in the year 2018 (2018-11-21 UTC)

Documentation

Showing up to 5 results
|